Regional Weather Roundup
Issued by NWS

Home | Current Version | Previous Version | Graphics & Text | Print | Product List | Glossary On
Versions: 1 2 3 4 5 6 7 8 9 10 11 12 13 14 15 16 17 18 19 20 21 22 23 24 25 26 27 28 29 30 31 32 33 34 35 36 37 38 39 40 41 42 43 44 45 46 47 48 49 50
000
ASUS45 KSLC 070410
RWRUT

UTAH REGIONAL WEATHER ROUNDUP
NATIONAL WEATHER SERVICE SALT LAKE CITY UT
1000 PM MDT MON JUL 06 2015

UTZ001>011-023>025-070500-

NORTHERN UTAH

CITY           SKY/WX    TMP DP  RH WIND       PRES   REMARKS
BRIGHAM CITY   PTCLDY    76  53  44 NW3       30.06R
HILL AFB       PTCLDY    76  53  43 E2        30.09R
LOGAN          CLEAR     67  57  70 N5        30.08R
OGDEN          PTCLDY    77  54  44 N6        30.06R
PROVO AIRPORT  MOCLDY    70  48  46 E3        30.10R
SALT LAKE CITY PTCLDY    76  55  48 SE6       30.04S
VERNAL         CLOUDY    67  51  56 S6        30.15R
WENDOVER       PTCLDY    79  45  29 NE10      30.07R
HEBER CITY     MOCLDY    64  50  59 CALM      30.15S
WEST JORDAN    CLEAR     73  52  46 SW12      30.09R

$$

UTZ012>022-026-027-070500-

SOUTHERN/CENTRAL UTAH

CITY           SKY/WX    TMP DP  RH WIND       PRES   REMARKS
BLANDING       CLOUDY    67  55  65 W3        30.23R
BRYCE CANYON   MOCLDY    53  51  93 W7        30.32S
CEDAR CITY     CLOUDY    65  53  65 SE3       30.17S
DELTA          MOCLDY    71  47  42 MISG      30.11R
HANKSVILLE     CLOUDY    73  52  46 W6        30.11S
MILFORD        CLOUDY    70  47  43 SW13      30.11S
MOAB/CYNLANDS  MOCLDY    71  60  68 SE5       30.08R
PRICE          MOCLDY    66  47  50 N8        30.17S
ST GEORGE      MOCLDY    79  55  44 W17       30.03R THUNDER
KANAB          PTCLDY    64  57  77 E5        30.21S

$$

REGIONAL REPORTS     COLORADO/ARIZONA

CITY           SKY/WX    TMP DP  RH WIND       PRES   REMARKS
CRAIG, CO      CLOUDY    61  53  75 SE7       30.20R
GRAND JUNCTION LGT RAIN  69  55  60 SW8       30.11R
RIFLE          MOCLDY    73  47  39 NW12      30.14R THUNDER
MONTROSE       CLOUDY    74  47  38 NW6       30.17R
CORTEZ         CLEAR     64  53  67 E7        30.17R
PAGE, AZ       CLOUDY    74  54  49 CALM      30.09F
GRAND CANYON   PTCLDY    57  48  72 CALM      30.27R
KINGMAN        CLOUDY    75  62  64 NE7       30.03S
FLAGSTAFF      PTCLDY    61  52  72 W5        30.30S

$$

REGIONAL REPORTS    NEVADA/IDAHO/WYOMING

CITY           SKY/WX    TMP DP  RH WIND       PRES   REMARKS
LAS VEGAS, NV  LGT RAIN  79  64  60 SW10      29.93R
ELY            MOCLDY    64  41  42 N7        30.22R
ELKO           PTCLDY    73  46  38 N6        30.11R
POCATELLO, ID  CLEAR     67  57  70 NW9       30.09R
BURLEY         PTCLDY    74  53  48 N5        30.04R
EVANSTON, WY   MOCLDY    58  49  72 E15       30.27R
ROCK SPRINGS   CLOUDY    56  53  90 E12       30.28S
KEMMERER       CLOUDY    55  48  76 SE6       30.31R

$$



USA.gov is the U.S. government's official web portal to all federal, state and local government web resources and services.